This is the latest recevied weather packets stored in our database for station/object KA1JKB. If no packets are shown the sender has not sent any weather packets the latest 10 day(s).
| Time | Temp. | Humidity | Pressure | Rain* | Wind** | Luminosity | Snow |
|---|---|---|---|---|---|---|---|
| 1787698439 | 24.44° C | 68% | 1015.5 hPa | 0 mm | - | 82 W/m² | - |
| 1787698134 | 24.44° C | 66% | 1015.7 hPa | 0 mm | - | 147 W/m² | - |
| 1787697829 | 24.44° C | 66% | 1015.7 hPa | 0 mm | - | 209 W/m² | - |
| 1787697524 | 24.44° C | 67% | 1015.8 hPa | 0 mm | - | 157 W/m² | - |
| 1787697220 | 23.89° C | 69% | 1015.6 hPa | 0 mm | - | 101 W/m² | - |
| 1787696915 | 23.89° C | 70% | 1015.5 hPa | 0 mm | - | 166 W/m² | - |
| 1787696611 | 24.44° C | 68% | 1015.6 hPa | 0 mm | - | 105 W/m² | - |
| 1787696306 | 24.44° C | 65% | 1015.5 hPa | 0 mm | - | 306 W/m² | - |
| 1787696001 | 25° C | 65% | 1015.8 hPa | 0 mm | - | 318 W/m² | - |
| 1787695701 | 25° C | 65% | 1015.7 hPa | 0 mm | - | 342 W/m² | - |
| 1787695398 | 24.44° C | 66% | 1015.6 hPa | 0 mm | - | 375 W/m² | - |
| 1787695098 | 24.44° C | 65% | 1015.8 hPa | 0 mm | - | 390 W/m² | - |
| 1787694796 | 24.44° C | 68% | 1015.7 hPa | 0 mm | - | 367 W/m² | - |
| 1787694493 | 24.44° C | 69% | 1015.7 hPa | 0 mm | - | 117 W/m² | - |
| 1787694192 | 25° C | 65% | 1016 hPa | 0 mm | - | 127 W/m² | - |
| 1787693888 | 25° C | 65% | 1015.8 hPa | 0 mm | - | 91 W/m² | - |
| 1787693584 | 25.56° C | 64% | 1015.9 hPa | 0 mm | - | 183 W/m² | - |
| 1787693280 | 26.67° C | 60% | 1016 hPa | 0 mm | - | 430 W/m² | - |
| 1787692975 | 25° C | 66% | 1016 hPa | 0 mm | - | 464 W/m² | - |
| 1787692670 | 25.56° C | 62% | 1016.1 hPa | 0 mm | - | 484 W/m² | - |
| 1787692366 | 25.56° C | 65% | 1016.1 hPa | 0 mm | - | 428 W/m² | - |
| 1787692062 | 25.56° C | 64% | 1016.2 hPa | 0 mm | - | 415 W/m² | - |
| 1787691760 | 25.56° C | 62% | 1016.1 hPa | 0 mm | - | 427 W/m² | - |
| 1787691459 | 26.11° C | 61% | 1016.1 hPa | 0 mm | - | 413 W/m² | - |
| 1787691157 | 25.56° C | 62% | 1016.3 hPa | 0 mm | - | 485 W/m² | - |
* Rain latest hour (hover to see other rain measurements)
** Current wind speed in m/s (hover to see current wind gust speed)